KI5NXU Weather Reports


Display with metric or nautical units.
time (UTC)temp
F
wind
direction
speed
MPH
gust
MPH
rain 1hr
in
rain 24hr
in
rain mn
in
humidity
%
barometer
mb
20260831050937 88 160 2.0 3.0 0.00 0.00 0.00 45 1014.2
20260831050437 88 138 3.0 3.0 0.00 0.00 0.00 45 1014.3
20260831045936 87 172 1.0 2.0 0.00 0.00 0.00 45 1014.6
20260831045435 87 138 2.0 3.0 0.00 0.00 0.00 45 1014.2
20260831044931 87 169 4.0 6.0 0.00 0.00 0.00 44 1014.1
20260831044425 87 150 2.0 3.0 0.00 0.00 0.00 44 1014.1
20260831043921 87 170 5.0 8.0 0.00 0.00 0.00 44 1014.2
20260831043421 87 171 3.0 6.0 0.00 0.00 0.00 44 1014.0
20260831042917 87 160 4.0 6.0 0.00 0.00 0.00 44 1014.0
20260831042415 88 169 7.0 8.0 0.00 0.00 0.00 43 1014.1
20260831041905 88 150 3.0 6.0 0.00 0.00 0.00 43 1014.3
20260831041404 88 158 3.0 5.0 0.00 0.00 0.00 43 1014.2
20260831040859 88 155 5.0 8.0 0.00 0.00 0.00 43 1014.2
20260831040354 88 180 4.0 6.0 0.00 0.00 0.00 42 1014.4
20260831035852 89 143 6.0 7.0 0.00 0.00 0.00 42 1014.3
20260831035351 89 180 3.0 5.0 0.00 0.00 0.00 42 1014.2
20260831034846 89 167 4.0 6.0 0.00 0.00 0.00 41 1014.1
20260831034341 89 155 3.0 5.0 0.00 0.00 0.00 41 1014.0
20260831033837 90 169 4.0 6.0 0.00 0.00 0.00 40 1013.9
20260831033337 89 158 7.0 9.0 0.00 0.00 0.00 40 1014.0
20260831032832 90 163 4.0 5.0 0.00 0.00 0.00 40 1013.8
20260831032326 90 168 5.0 7.0 0.00 0.00 0.00 39 1013.8
20260831031821 90 175 4.0 5.0 0.00 0.00 0.00 39 1013.9
20260831031320 90 156 6.0 8.0 0.00 0.00 0.00 39 1013.9
20260831030816 90 175 5.0 7.0 0.00 0.00 0.00 39 1013.6
20260831030314 90 175 4.0 6.0 0.00 0.00 0.00 39 1013.9
20260831025808 91 137 3.0 6.0 0.00 0.00 0.00 38 1013.4
20260831025306 91 152 3.0 5.0 0.00 0.00 0.00 38 1013.5
20260831024758 91 158 4.0 6.0 0.00 0.00 0.00 38 1013.7
20260831024257 91 164 2.0 3.0 0.00 0.00 0.00 38 1013.4
20260831023756 91 117 1.0 2.0 0.00 0.00 0.00 38 1013.5
20260831023255 91 146 2.0 3.0 0.00 0.00 0.00 38 1013.4
20260831022750 91 121 2.0 2.0 0.00 0.00 0.00 37 1013.0
20260831022249 91 155 3.0 3.0 0.00 0.00 0.00 37 1013.3
20260831021745 92 174 3.0 5.0 0.00 0.00 0.00 37 1012.9
20260831021244 92 152 2.0 2.0 0.00 0.00 0.00 37 1012.9
20260831020741 92 125 3.0 3.0 0.00 0.00 0.00 37 1012.6
20260831020239 92 161 2.0 3.0 0.00 0.00 0.00 37 1012.7
20260831015735 92 161 3.0 5.0 0.00 0.00 0.00 37 1012.6
20260831015231 92 156 2.0 2.0 0.00 0.00 0.00 36 1012.5
20260831014726 92 157 3.0 5.0 0.00 0.00 0.00 36 1012.4
20260831014226 92 154 3.0 5.0 0.00 0.00 0.00 36 1012.4
20260831013722 93 108 3.0 3.0 0.00 0.00 0.00 35 1012.4
20260831013221 93 130 5.0 7.0 0.00 0.00 0.00 35 1012.2
20260831012716 93 114 2.0 2.0 0.00 0.00 0.00 34 1012.0
20260831012212 94 135 2.0 2.0 0.00 0.00 0.00 34 1012.3
20260831011710 94 138 2.0 2.0 0.00 0.00 0.00 33 1012.0
20260831011206 95 137 4.0 7.0 0.00 0.00 0.00 33 1012.4
20260831010702 95 152 2.0 2.0 0.00 0.00 0.00 32 1012.3
20260831010157 95 147 3.0 5.0 0.00 0.00 0.00 32 1012.2
20260831005652 96 150 3.0 3.0 0.00 0.00 0.00 31 1012.0
20260831005147 96 173 2.0 3.0 0.00 0.00 0.00 31 1012.0
20260831004643 96 128 3.0 3.0 0.00 0.00 0.00 31 1011.8
20260831004139 97 156 3.0 5.0 0.00 0.00 0.00 30 1011.9
20260831003635 97 143 3.0 3.0 0.00 0.00 0.00 30 1011.8
20260831003130 98 165 3.0 3.0 0.00 0.00 0.00 30 1011.8
20260831002628 98 133 0.0 1.0 0.00 0.00 0.00 29 1011.6
20260831002124 99 149 2.0 3.0 0.00 0.00 0.00 29 1011.8
20260831001620 100 157 2.0 3.0 0.00 0.00 0.00 28 1011.9
20260831001115 100 158 2.0 6.0 0.00 0.00 0.00 28 1011.7
20260831000612 100 137 1.0 1.0 0.00 0.00 0.00 28 1012.0
20260831000111 101 128 1.0 1.0 0.00 0.00 0.00 28 1011.9
20260830235610 101 173 2.0 2.0 0.00 0.00 0.00 28 1011.8
20260830235105 102 172 3.0 5.0 0.00 0.00 0.00 27 1011.8
20260830234600 102 154 1.0 1.0 0.00 0.00 0.00 28 1011.8
20260830234055 102 148 3.0 6.0 0.00 0.00 0.00 28 1012.1
20260830233550 101 193 3.0 3.0 0.00 0.00 0.00 28 1012.1
20260830233046 102 193 5.0 6.0 0.00 0.00 0.00 27 1011.9
20260830232542 102 181 4.0 6.0 0.00 0.00 0.00 27 1012.1
20260830232038 103 147 1.0 3.0 0.00 0.00 0.00 27 1012.1
20260830231534 103 146 1.0 2.0 0.00 0.00 0.00 27 1012.0
20260830231033 102 197 6.0 9.0 0.00 0.00 0.00 27 1012.1
20260830230528 103 143 1.0 2.0 0.00 0.00 0.00 27 1012.0
20260830230023 103 148 3.0 3.0 0.00 0.00 0.00 27 1012.0
20260830225519 103 196 3.0 5.0 0.00 0.00 0.00 27 1012.2
20260830225018 103 163 2.0 2.0 0.00 0.00 0.00 28 1012.0
20260830224516 103 167 2.0 2.0 0.00 0.00 0.00 27 1012.2
20260830224013 102 188 2.0 2.0 0.00 0.00 0.00 28 1011.8
20260830223509 103 149 1.0 2.0 0.00 0.00 0.00 28 1011.9
20260830223004 102 156 1.0 2.0 0.00 0.00 0.00 29 1012.2
20260830222458 103 149 2.0 2.0 0.00 0.00 0.00 28 1012.2
20260830221954 104 216 3.0 5.0 0.00 0.00 0.00 28 1012.2
20260830221450 103 202 5.0 6.0 0.00 0.00 0.00 28 1012.1
20260830220945 104 212 8.0 8.0 0.00 0.00 0.00 27 1012.0
20260830220440 104 114 3.0 6.0 0.00 0.00 0.00 28 1012.3
20260830215937 105 134 0.0 0.0 0.00 0.00 0.00 27 1012.2
20260830215432 104 188 4.0 5.0 0.00 0.00 0.00 28 1012.2
20260830214927 104 145 1.0 1.0 0.00 0.00 0.00 28 1012.2
20260830214422 104 160 2.0 3.0 0.00 0.00 0.00 28 1012.4
20260830213916 104 150 3.0 3.0 0.00 0.00 0.00 27 1012.4
20260830213412 103 151 2.0 2.0 0.00 0.00 0.00 28 1012.3
20260830212908 104 157 1.0 1.0 0.00 0.00 0.00 27 1012.4
20260830212403 104 203 5.0 8.0 0.00 0.00 0.00 27 1012.5
20260830211902 102 149 2.0 3.0 0.00 0.00 0.00 29 1012.5
20260830211356 104 225 4.0 5.0 0.00 0.00 0.00 27 1012.5
20260830210853 104 140 1.0 1.0 0.00 0.00 0.00 29 1012.6
20260830210352 104 161 1.0 1.0 0.00 0.00 0.00 26 1012.6
20260830205849 103 183 5.0 6.0 0.00 0.00 0.00 27 1012.8
20260830205349 103 141 1.0 1.0 0.00 0.00 0.00 28 1012.9
20260830204844 102 164 3.0 5.0 0.00 0.00 0.00 29 1012.9
20260830204343 102 144 3.0 5.0 0.00 0.00 0.00 29 1012.8
20260830203838 101 179 3.0 3.0 0.00 0.00 0.00 31 1013.3
20260830203335 102 164 4.0 7.0 0.00 0.00 0.00 30 1013.5
20260830202834 102 211 6.0 7.0 0.00 0.00 0.00 30 1013.3
20260830202330 103 174 2.0 2.0 0.00 0.00 0.00 30 1013.5
20260830201825 102 178 2.0 2.0 0.00 0.00 0.00 31 1013.4
20260830201319 102 123 1.0 2.0 0.00 0.00 0.00 30 1013.7
20260830200814 102 164 4.0 5.0 0.00 0.00 0.00 30 1013.4
20260830200314 102 159 3.0 5.0 0.00 0.00 0.00 30 1013.8
20260830195809 101 142 1.0 1.0 0.00 0.00 0.00 30 1013.9
20260830195309 102 218 6.0 7.0 0.00 0.00 0.00 32 1013.8
20260830194807 102 111 2.0 2.0 0.00 0.00 0.00 31 1013.9
20260830194307 103 153 1.0 2.0 0.00 0.00 0.00 31 1014.1
20260830193802 102 160 1.0 2.0 0.00 0.00 0.00 30 1014.1
20260830193256 101 183 4.0 5.0 0.00 0.00 0.00 32 1014.2
20260830192752 101 221 12.0 15.0 0.00 0.00 0.00 33 1014.1
20260830192251 101 160 2.0 5.0 0.00 0.00 0.00 34 1014.1
20260830191748 101 229 7.0 8.0 0.00 0.00 0.00 33 1014.3
20260830191247 100 158 3.0 7.0 0.00 0.00 0.00 33 1014.3
20260830190744 101 159 3.0 6.0 0.00 0.00 0.00 32 1014.3
20260830190244 102 178 3.0 5.0 0.00 0.00 0.00 32 1014.5
20260830185741 100 137 1.0 2.0 0.00 0.00 0.00 33 1014.3
20260830185237 98 198 5.0 7.0 0.00 0.00 0.00 34 1014.6
20260830184737 99 200 7.0 9.0 0.00 0.00 0.00 34 1014.6
20260830184236 99 164 1.0 2.0 0.00 0.00 0.00 34 1014.8
20260830183732 100 195 7.0 8.0 0.00 0.00 0.00 33 1014.8
20260830183226 99 218 4.0 5.0 0.00 0.00 0.00 36 1014.7
20260830182721 99 164 2.0 2.0 0.00 0.00 0.00 34 1015.0
20260830182218 98 168 2.0 2.0 0.00 0.00 0.00 35 1015.0
20260830181714 98 203 10.0 13.0 0.00 0.00 0.00 35 1015.0
20260830181214 97 199 1.0 2.0 0.00 0.00 0.00 37 1015.2
20260830180713 98 187 2.0 2.0 0.00 0.00 0.00 36 1015.3
20260830180208 99 146 3.0 7.0 0.00 0.00 0.00 36 1015.3
20260830175708 100 208 6.0 7.0 0.00 0.00 0.00 39 1015.4
20260830175202 100 165 6.0 10.0 0.00 0.00 0.00 36 1015.4
20260830174657 100 150 3.0 5.0 0.00 0.00 0.00 37 1015.6
20260830174153 98 161 1.0 2.0 0.00 0.00 0.00 40 1015.6
20260830173647 99 202 3.0 6.0 0.00 0.00 0.00 38 1015.9
20260830173142 99 200 4.0 6.0 0.00 0.00 0.00 39 1015.8
20260830172639 97 144 1.0 2.0 0.00 0.00 0.00 39 1015.8
20260830172136 97 208 4.0 6.0 0.00 0.00 0.00 39 1016.1
20260830171637 98 193 1.0 2.0 0.00 0.00 0.00 39 1016.0
20260830171136 98 185 3.0 3.0 0.00 0.00 0.00 38 1016.2
20260830170631 97 195 3.0 5.0 0.00 0.00 0.00 39 1016.2
20260830170130 97 194 7.0 8.0 0.00 0.00 0.00 40 1016.1
20260830165625 98 199 5.0 6.0 0.00 0.00 0.00 40 1016.1
20260830165121 97 167 4.0 5.0 0.00 0.00 0.00 42 1016.4
20260830164617 96 177 3.0 5.0 0.00 0.00 0.00 44 1016.3
20260830164113 95 160 1.0 2.0 0.00 0.00 0.00 44 1016.7
20260830163610 95 182 2.0 2.0 0.00 0.00 0.00 45 1016.6
20260830163110 94 224 7.0 9.0 0.00 0.00 0.00 47 1016.1
20260830162605 93 232 8.0 9.0 0.00 0.00 0.00 48 1016.7
20260830162101 93 242 8.0 9.0 0.00 0.00 0.00 50 1016.4
20260830161600 93 216 14.0 16.0 0.00 0.00 0.00 48 1016.6
20260830161055 93 216 7.0 8.0 0.00 0.00 0.00 50 1016.7
20260830160551 93 233 10.0 10.0 0.00 0.00 0.00 50 1016.7
20260830160046 92 211 8.0 10.0 0.00 0.00 0.00 50 1016.7
20260830155542 92 221 11.0 14.0 0.00 0.00 0.00 50 1016.6
20260830155038 92 212 10.0 11.0 0.00 0.00 0.00 50 1016.6
20260830154532 92 215 9.0 10.0 0.00 0.00 0.00 50 1017.0
20260830154029 91 214 12.0 15.0 0.00 0.00 0.00 50 1016.7
20260830153525 91 219 12.0 14.0 0.00 0.00 0.00 51 1016.8
20260830153025 91 212 10.0 11.0 0.00 0.00 0.00 51 1016.4
20260830152520 90 211 13.0 15.0 0.00 0.00 0.00 52 1016.8
20260830152019 91 225 9.0 10.0 0.00 0.00 0.00 52 1016.4
20260830151518 90 222 11.0 13.0 0.00 0.00 0.00 52 1016.6
20260830151014 90 213 12.0 14.0 0.00 0.00 0.00 52 1016.8
20260830150513 90 212 8.0 10.0 0.00 0.00 0.00 53 1016.4
20260830150008 89 212 9.0 11.0 0.00 0.00 0.00 53 1016.6
20260830145507 89 193 10.0 11.0 0.00 0.00 0.00 53 1016.3
20260830145003 89 218 10.0 13.0 0.00 0.00 0.00 53 1016.4
20260830144459 89 218 6.0 7.0 0.00 0.00 0.00 54 1016.6
20260830143954 88 225 10.0 10.0 0.00 0.00 0.00 55 1016.4
20260830143450 88 239 11.0 13.0 0.00 0.00 0.00 55 1016.4
20260830142948 88 207 9.0 10.0 0.00 0.00 0.00 56 1016.4
20260830142444 87 222 7.0 8.0 0.00 0.00 0.00 56 1016.8
20260830141944 87 215 6.0 7.0 0.00 0.00 0.00 57 1016.7
20260830141439 86 182 7.0 8.0 0.00 0.00 0.00 58 1016.6
20260830140934 86 195 4.0 5.0 0.00 0.00 0.00 59 1016.7
20260830140430 85 216 10.0 11.0 0.00 0.00 0.00 60 1016.4
20260830135928 85 223 7.0 8.0 0.00 0.00 0.00 62 1016.4
20260830135424 85 201 7.0 8.0 0.00 0.00 0.00 61 1016.4
20260830134920 84 208 6.0 7.0 0.00 0.00 0.00 63 1016.6
20260830134415 84 198 7.0 9.0 0.00 0.00 0.00 64 1016.6
20260830133911 84 203 6.0 7.0 0.00 0.00 0.00 64 1016.3
20260830133406 83 181 4.0 5.0 0.00 0.00 0.00 65 1016.6
20260830132901 83 217 9.0 10.0 0.00 0.00 0.00 66 1016.3
20260830132357 82 197 6.0 7.0 0.00 0.00 0.00 67 1016.2
20260830131856 82 209 4.0 6.0 0.00 0.00 0.00 66 1016.3
20260830131356 82 203 4.0 5.0 0.00 0.00 0.00 67 1016.1
20260830130851 82 192 3.0 5.0 0.00 0.00 0.00 68 1016.0
20260830130347 81 207 5.0 6.0 0.00 0.00 0.00 69 1016.0
20260830125845 81 189 3.0 3.0 0.00 0.00 0.00 69 1015.8
20260830125341 81 197 2.0 2.0 0.00 0.00 0.00 69 1016.1
20260830124839 80 155 1.0 2.0 0.00 0.00 0.00 70 1016.1
20260830124334 80 180 2.0 2.0 0.00 0.00 0.00 70 1015.9
20260830123830 80 134 0.0 1.0 0.00 0.00 0.00 70 1015.9
20260830123327 80 138 0.0 1.0 0.00 0.00 0.00 71 1015.9
20260830122824 80 160 1.0 1.0 0.00 0.00 0.00 70 1015.9
20260830122324 80 222 4.0 5.0 0.00 0.00 0.00 70 1015.9
20260830121820 80 173 1.0 2.0 0.00 0.00 0.00 70 1015.8
20260830121319 80 212 4.0 5.0 0.00 0.00 0.00 70 1015.6
20260830120814 80 144 2.0 2.0 0.00 0.00 0.00 70 1015.6
20260830120310 80 154 2.0 2.0 0.00 0.00 0.00 70 1015.3
20260830115806 80 180 2.0 2.0 0.00 0.00 0.00 69 1015.2
20260830115305 81 194 3.0 3.0 0.00 0.00 0.00 68 1015.2
20260830114758 80 178 3.0 3.0 0.00 0.00 0.00 69 1015.1
20260830114253 80 151 1.0 1.0 0.00 0.00 0.00 68 1015.0
20260830113748 80 138 1.0 2.0 0.00 0.00 0.00 68 1014.9
20260830113244 81 134 1.0 1.0 0.00 0.00 0.00 68 1015.2
20260830112739 81 193 4.0 5.0 0.00 0.00 0.00 68 1014.9
20260830112236 81 152 1.0 2.0 0.00 0.00 0.00 68 1015.0
20260830111731 81 135 0.0 1.0 0.00 0.00 0.00 68 1015.0
20260830111226 81 143 1.0 1.0 0.00 0.00 0.00 68 1015.0
20260830110726 81 153 1.0 2.0 0.00 0.00 0.00 67 1014.7
20260830110223 81 146 0.0 1.0 0.00 0.00 0.00 67 1014.9
20260830105722 81 162 1.0 1.0 0.00 0.00 0.00 67 1015.0
20260830105218 81 137 1.0 1.0 0.00 0.00 0.00 67 1014.8
20260830104714 81 142 1.0 1.0 0.00 0.00 0.00 66 1014.6
20260830104211 81 138 0.0 0.0 0.00 0.00 0.00 66 1014.7
20260830103710 81 158 1.0 1.0 0.00 0.00 0.00 66 1014.7
20260830103206 82 140 0.0 1.0 0.00 0.00 0.00 65 1014.7
20260830102703 82 178 1.0 2.0 0.00 0.00 0.00 65 1014.6
20260830102200 82 153 1.0 1.0 0.00 0.00 0.00 64 1014.8
20260830101650 82 173 1.0 2.0 0.00 0.00 0.00 64 1014.6
20260830101145 82 172 1.0 2.0 0.00 0.00 0.00 64 1014.8
20260830100645 82 139 1.0 1.0 0.00 0.00 0.00 63 1014.5
20260830100139 82 143 1.0 1.0 0.00 0.00 0.00 63 1014.5
20260830095637 82 138 0.0 1.0 0.00 0.00 0.00 63 1014.4
20260830095134 82 204 3.0 5.0 0.00 0.00 0.00 63 1014.7
20260830094630 82 138 0.0 1.0 0.00 0.00 0.00 62 1014.6
20260830094125 82 144 2.0 2.0 0.00 0.00 0.00 62 1014.6
20260830093620 82 200 2.0 5.0 0.00 0.00 0.00 61 1014.6
20260830093117 82 171 4.0 5.0 0.00 0.00 0.00 61 1014.5
20260830092611 83 152 1.0 1.0 0.00 0.00 0.00 61 1014.6
20260830092109 82 157 3.0 3.0 0.00 0.00 0.00 61 1014.5
20260830091603 82 148 1.0 2.0 0.00 0.00 0.00 61 1014.6
20260830091102 82 149 1.0 1.0 0.00 0.00 0.00 61 1014.6
20260830090557 82 136 0.0 1.0 0.00 0.00 0.00 60 1014.5
20260830090053 82 139 0.0 0.0 0.00 0.00 0.00 60 1014.6
20260830085547 82 143 1.0 1.0 0.00 0.00 0.00 59 1014.4
20260830085043 82 137 1.0 1.0 0.00 0.00 0.00 59 1014.5
20260830084538 82 197 1.0 1.0 0.00 0.00 0.00 59 1014.4
20260830084038 83 147 1.0 3.0 0.00 0.00 0.00 58 1014.6
20260830083534 82 138 0.0 1.0 0.00 0.00 0.00 58 1014.5
20260830083033 82 149 1.0 1.0 0.00 0.00 0.00 58 1014.7
20260830082529 82 160 2.0 3.0 0.00 0.00 0.00 58 1014.8
20260830082024 82 136 0.0 0.0 0.00 0.00 0.00 57 1014.5
20260830081519 82 139 0.0 0.0 0.00 0.00 0.00 57 1014.7
20260830081018 82 140 1.0 1.0 0.00 0.00 0.00 57 1014.7
20260830080514 82 138 0.0 1.0 0.00 0.00 0.00 57 1014.9
20260830080009 82 137 0.0 1.0 0.00 0.00 0.00 57 1014.9
20260830075504 82 136 0.0 0.0 0.00 0.00 0.00 57 1014.8
20260830074959 82 141 0.0 1.0 0.00 0.00 0.00 57 1014.9
20260830074455 82 135 1.0 1.0 0.00 0.00 0.00 57 1014.7
20260830073950 82 131 0.0 0.0 0.00 0.00 0.00 56 1014.8
20260830073446 83 134 0.0 1.0 0.00 0.00 0.00 56 1014.8
20260830072941 83 135 1.0 1.0 0.00 0.00 0.00 56 1014.7
20260830072437 83 137 0.0 0.0 0.00 0.00 0.00 55 1014.8
20260830071936 83 134 0.0 0.0 0.00 0.00 0.00 55 1014.8
20260830071432 84 139 0.0 1.0 0.00 0.00 0.00 55 1015.0
20260830070930 84 138 1.0 1.0 0.00 0.00 0.00 54 1014.8
20260830070425 84 134 0.0 0.0 0.00 0.00 0.00 54 1015.1
20260830065924 84 144 1.0 1.0 0.00 0.00 0.00 54 1014.9
20260830065418 84 139 0.0 1.0 0.00 0.00 0.00 54 1014.9
20260830064916 84 166 1.0 2.0 0.00 0.00 0.00 54 1015.0
20260830064412 84 171 2.0 2.0 0.00 0.00 0.00 54 1014.7
20260830063912 84 157 1.0 2.0 0.00 0.00 0.00 53 1014.8
20260830063412 84 150 1.0 2.0 0.00 0.00 0.00 53 1015.0
20260830062911 84 136 1.0 1.0 0.00 0.00 0.00 53 1014.6
20260830062411 84 146 1.0 1.0 0.00 0.00 0.00 53 1015.1
20260830061906 84 144 1.0 1.0 0.00 0.00 0.00 52 1014.9
20260830061406 84 140 1.0 1.0 0.00 0.00 0.00 52 1014.9
20260830060903 85 150 2.0 3.0 0.00 0.00 0.00 52 1015.1
20260830060359 85 131 0.0 0.0 0.00 0.00 0.00 52 1015.0
20260830055859 85 130 0.0 0.0 0.00 0.00 0.00 51 1015.0
20260830055355 86 133 0.0 0.0 0.00 0.00 0.00 51 1015.0
20260830054850 86 138 0.0 0.0 0.00 0.00 0.00 50 1014.9
20260830054346 86 139 0.0 1.0 0.00 0.00 0.00 49 1014.9
20260830053841 87 135 0.0 1.0 0.00 0.00 0.00 49 1015.0
20260830053337 87 152 1.0 2.0 0.00 0.00 0.00 49 1014.9
20260830052836 87 146 3.0 3.0 0.00 0.00 0.00 48 1015.0
20260830052331 87 155 2.0 2.0 0.00 0.00 0.00 48 1015.0
20260830051826 87 195 3.0 6.0 0.00 0.00 0.00 47 1014.8
20260830051322 87 176 2.0 3.0 0.00 0.00 0.00 47 1014.8